Theta_e
320 323 321 321 320 320 321 321 320 321 321 316 315 316 315 316 316 315 314 311 310 310 308 308 307 306 307 307 308 307 307 307 309 309 309 311 307 305 305 304 304 303 303 303 302 302 302 302 302 302 309 312 312 315 315 316 315 316 316 315 316 316 317 317 317 317 317 316 316 316 316 317 317 318 318 318 318 319 320 320 321 321 321 321 321 320 321 321 321 321 321 321 320 321 321 322 322
318 322 322 321 320 321 321 320 320 319 317 312 314 317 314 315 316 316 315 312 311 309 307 307 307 306 306 306 306 307 307 307 308 309 309 307 305 306 305 304 304 304 304 303 302 302 302 303 303 303 308 312 312 314 315 314 314 314 314 314 314 315 316 316 316 316 316 315 315 315 315 316 316 316 316 317 317 318 320 320 320 320 320 319 319 320 320 319 319 319 319 319 319 319 320 321 321
318 322 322 320 319 320 321 320 318 316 314 310 312 316 313 315 316 315 314 311 310 307 307 307 307 307 307 308 307 308 309 307 306 307 307 306 307 306 304 304 304 304 303 303 302 302 303 303 304 303 308 312 312 313 313 313 313 313 313 312 313 313 314 315 315 315 315 314 314 314 313 314 313 314 314 315 316 318 319 320 320 319 319 318 318 319 318 318 318 318 318 318 319 319 319 321 321
320 321 321 321 321 320 322 321 319 316 313 310 311 314 314 315 315 313 311 309 307 306 307 308 308 308 308 309 308 308 308 308 307 306 307 307 307 306 304 304 303 303 303 303 302 302 303 304 304 303 308 311 311 312 312 312 312 311 311 310 310 311 313 313 313 314 314 313 313 312 311 311 311 310 311 315 316 318 319 319 319 318 318 318 318 318 317 317 318 318 318 319 319 319 319 319 320
319 320 319 321 323 320 321 320 320 317 314 312 312 314 314 313 313 312 310 307 306 306 308 308 308 308 307 308 307 308 309 308 307 306 307 307 305 304 304 304 303 303 304 303 302 303 304 303 304 303 307 310 310 311 311 311 310 309 309 308 307 309 312 312 311 312 312 312 311 310 309 308 307 304 308 315 317 318 319 318 318 318 318 318 318 317 317 317 317 318 318 319 319 318 319 318 318
317 318 317 318 318 317 319 318 317 317 316 316 316 315 312 311 312 312 309 307 305 305 306 307 308 307 307 308 307 308 308 307 307 306 306 307 304 304 303 303 303 304 304 303 303 304 304 304 304 303 305 308 310 310 310 310 308 306 306 305 305 308 311 311 311 311 311 311 310 310 306 304 302 301 309 316 316 317 318 317 318 318 318 317 318 317 317 317 318 318 318 319 319 318 319 318 318
317 319 318 317 316 316 319 317 316 318 316 315 316 314 311 310 310 310 309 308 306 304 305 306 306 307 307 307 307 308 306 306 307 306 306 306 304 304 303 303 303 304 304 304 304 304 305 304 305 304 304 306 308 308 308 307 305 304 304 304 304 308 310 310 310 310 310 309 309 308 303 301 299 301 311 316 316 316 317 317 317 317 317 317 318 317 317 318 318 318 318 319 320 318 319 318 318
317 319 318 319 318 317 319 317 318 318 313 310 312 311 310 309 308 310 310 308 307 305 305 305 304 307 307 304 307 308 305 306 306 306 305 305 304 303 303 303 304 304 305 304 305 305 305 305 305 305 304 305 306 306 305 304 303 302 302 303 303 306 309 309 309 309 309 308 308 305 300 298 298 303 312 316 315 316 316 316 316 317 317 317 317 317 317 317 317 318 318 318 318 318 318 319 319
315 317 317 319 318 317 317 316 317 316 313 310 309 309 309 308 308 310 310 308 306 305 305 305 304 307 307 304 307 308 306 306 305 305 305 304 304 303 303 303 304 305 304 304 305 305 305 305 305 305 305 304 304 304 303 303 303 302 301 302 302 305 308 308 308 307 306 305 305 302 298 296 297 306 313 314 315 315 315 315 315 316 316 316 315 316 317 317 317 317 317 317 317 317 318 318 319
316 316 318 319 317 315 315 315 316 314 312 310 308 308 307 307 307 308 309 308 305 305 304 303 304 306 306 306 307 308 306 306 305 305 305 304 304 304 303 303 304 304 304 305 305 305 305 305 304 304 304 304 304 303 303 303 303 302 301 301 301 304 307 306 305 304 302 301 301 299 296 295 297 307 312 313 314 314 314 314 314 315 316 316 315 316 317 316 317 316 316 318 317 317 318 318 319
318 316 317 318 314 314 313 314 316 314 311 308 308 307 306 307 308 307 307 307 305 305 304 302 305 306 305 306 308 307 305 305 305 306 305 304 304 304 304 303 303 304 304 305 305 305 304 304 304 304 304 304 304 303 303 303 303 302 300 300 301 303 304 303 302 301 300 299 298 297 296 294 296 307 312 312 313 313 313 313 313 314 315 315 315 315 316 316 316 315 316 318 318 317 317 317 318
319 317 317 317 314 314 313 314 315 314 312 309 309 306 305 306 307 308 307 307 306 305 305 304 306 306 306 307 308 307 305 305 305 306 305 304 304 304 304 303 303 304 304 305 305 305 304 305 304 304 304 304 304 303 303 303 303 302 300 300 300 301 301 300 300 300 299 298 297 296 296 294 297 307 312 312 313 312 312 312 312 314 314 315 315 315 316 316 316 316 316 317 317 317 316 316 317
319 318 317 316 313 314 313 313 313 313 313 311 308 304 303 306 308 309 307 307 306 306 306 305 305 305 306 307 307 307 306 306 306 305 305 304 304 304 304 304 303 304 304 305 305 305 305 305 304 304 304 303 303 303 303 303 303 302 301 300 299 299 299 299 299 299 299 298 297 296 296 295 297 308 312 312 312 312 312 312 312 314 315 315 315 315 315 315 315 315 315 316 316 315 315 315 316
318 317 318 316 311 313 313 314 313 312 312 309 305 301 303 306 306 306 306 307 306 306 305 304 304 305 306 308 307 307 307 306 305 305 304 304 304 304 304 304 304 304 304 305 305 305 305 305 305 304 304 303 303 303 303 303 303 302 300 300 299 299 299 299 299 299 299 298 297 297 297 295 298 308 313 312 312 312 312 312 313 314 315 315 315 314 314 313 314 314 315 315 314 314 314 314 314
315 315 317 317 312 313 313 313 312 311 310 307 303 301 303 304 302 303 305 307 306 304 302 303 303 306 307 308 308 307 306 305 305 306 305 304 304 304 304 304 304 304 304 305 305 305 305 305 305 304 304 303 303 303 303 303 303 302 300 300 299 299 299 299 299 299 299 299 298 297 297 296 296 306 312 312 312 313 313 313 313 314 314 314 315 315 313 313 314 315 315 314 314 313 313 314 313
311 314 317 316 314 313 313 311 310 310 309 305 300 300 304 304 301 303 304 304 305 302 302 304 303 305 306 306 307 307 305 305 305 306 305 304 304 304 304 304 304 304 304 305 305 306 305 305 305 304 304 303 303 303 303 303 303 302 300 300 299 299 299 299 299 299 299 299 299 298 297 297 295 300 308 311 312 313 313 313 313 314 314 314 315 315 314 313 315 315 314 313 313 314 314 314 314
310 315 316 314 313 313 312 312 310 310 309 305 301 300 305 305 301 302 301 301 304 303 302 304 304 304 305 305 306 305 304 304 305 305 304 305 305 305 306 305 305 305 305 304 305 305 305 306 305 304 304 304 303 303 303 303 302 301 300 300 300 299 299 299 299 299 299 299 299 299 298 297 296 297 304 310 312 313 313 313 313 314 315 315 314 314 314 313 314 313 312 312 312 313 314 314 315
313 317 315 313 314 313 312 312 309 309 309 306 303 302 305 306 303 302 302 303 304 304 303 304 305 304 305 305 304 303 304 304 305 305 306 307 307 307 307 307 307 306 306 306 305 305 305 306 305 304 304 304 304 303 303 303 302 301 300 300 300 300 300 300 300 299 299 299 299 299 299 298 296 296 300 309 313 312 313 313 313 315 315 315 315 314 313 313 312 312 311 310 311 312 314 314 314
315 316 314 314 315 311 308 308 307 307 308 306 303 302 303 304 304 302 304 305 304 304 305 305 304 305 306 305 304 303 303 304 304 306 309 310 309 308 308 308 307 307 306 306 306 304 305 305 305 304 304 304 304 303 303 302 302 301 301 300 300 300 300 301 300 300 300 300 299 299 299 299 298 296 296 304 312 313 313 313 313 314 315 315 315 314 313 313 312 311 311 309 310 312 313 314 314
311 313 315 315 313 308 304 304 304 304 305 306 304 301 301 303 303 303 305 306 305 305 307 306 305 306 306 306 306 306 305 305 305 306 310 310 309 309 309 309 308 307 306 305 305 304 305 305 305 304 304 304 304 303 303 303 302 301 301 300 300 300 300 301 301 300 300 300 300 300 299 299 299 298 296 299 308 313 312 312 313 313 314 315 314 314 313 313 312 311 311 310 311 312 313 314 314
310 311 313 312 307 307 305 302 302 301 302 305 304 301 302 303 302 303 305 306 307 307 307 307 307 307 306 306 307 307 306 307 307 307 309 309 310 309 307 307 307 306 305 304 304 304 305 305 305 305 304 304 304 303 303 303 302 302 302 301 300 300 301 301 301 301 301 301 300 300 300 300 299 299 297 296 303 311 312 311 312 312 313 314 314 314 313 313 312 312 311 311 311 312 313 313 314
309 308 307 305 304 307 304 300 301 299 300 302 303 303 304 303 302 303 304 306 308 307 306 306 306 306 305 305 305 305 306 307 307 307 308 308 309 308 307 305 305 305 304 304 304 304 305 305 305 305 304 304 304 303 302 302 302 302 303 301 301 302 301 301 302 302 301 301 301 300 300 300 299 299 299 297 298 305 310 310 311 311 312 313 313 313 313 313 313 311 311 311 311 312 312 313 314
309 307 302 302 302 304 303 300 300 298 300 303 303 304 303 303 304 303 303 305 307 305 303 303 304 303 301 302 304 305 306 307 307 307 308 308 309 308 307 305 305 305 304 304 304 304 304 305 305 305 304 304 303 303 302 302 302 302 302 301 302 302 301 302 303 302 302 301 301 301 300 300 300 299 299 298 296 299 305 309 311 311 311 313 314 313 314 315 314 312 311 311 311 312 313 313 314
308 308 303 302 300 301 302 299 299 298 300 302 301 302 302 304 305 302 301 305 306 305 303 302 302 300 300 301 304 305 307 308 308 307 306 306 307 307 305 304 304 304 304 304 304 304 304 304 305 305 305 304 303 303 303 302 302 302 302 302 302 302 301 302 302 302 302 301 301 301 300 300 300 300 299 299 298 297 299 304 309 311 310 312 315 313 314 316 315 314 313 312 312 313 313 313 314
307 307 303 301 300 301 300 298 300 299 300 300 300 303 304 304 302 301 303 305 305 304 303 302 301 301 301 301 303 304 306 307 307 306 305 304 304 304 304 304 304 304 304 304 304 304 304 305 305 305 305 304 304 303 303 303 302 302 302 302 302 302 302 302 302 302 301 301 301 301 301 300 300 301 300 299 299 298 296 299 305 310 310 311 314 314 314 315 316 316 315 315 314 314 314 314 315
305 304 303 302 302 301 300 300 301 300 301 302 302 305 305 302 301 304 306 305 303 301 301 301 301 301 302 303 303 304 304 306 306 306 305 304 303 304 304 304 304 304 305 305 305 305 305 305 305 305 305 304 303 303 303 303 302 302 302 302 302 302 302 302 302 302 301 301 301 301 301 301 301 301 301 300 299 299 297 297 300 306 310 310 312 314 314 314 315 317 317 317 317 316 317 317 317
302 302 302 302 302 301 301 302 301 301 302 302 304 306 305 302 303 308 306 302 300 301 303 301 301 303 303 303 303 304 304 304 305 305 305 304 304 304 304 304 304 305 305 305 305 305 305 304 304 304 304 304 303 303 303 303 302 302 302 302 302 302 302 302 302 302 301 301 301 301 301 301 301 301 301 300 299 299 298 297 298 302 308 311 311 313 314 313 315 317 318 319 318 318 318 319 319
301 302 303 302 302 302 302 303 302 303 302 301 303 305 306 304 304 309 307 301 300 303 305 303 302 303 303 302 302 303 304 304 304 303 304 306 306 306 305 305 304 304 305 305 305 305 305 304 304 304 304 304 303 303 303 302 302 302 302 302 302 302 302 302 302 301 301 302 302 302 302 302 301 301 301 300 300 299 299 298 297 298 304 310 311 312 314 314 314 316 317 318 318 318 319 318 319
300 301 304 304 303 303 303 303 302 303 304 301 302 306 310 307 306 309 306 301 302 303 305 305 303 303 302 302 301 302 304 304 303 303 304 305 306 305 305 305 305 305 304 305 305 305 305 304 304 304 304 303 303 303 303 302 302 302 302 302 302 302 302 302 302 301 301 302 302 302 302 302 302 301 301 301 300 300 299 299 298 297 298 305 312 312 312 313 314 315 316 317 317 319 320 319 319
302 302 304 306 306 305 304 303 303 304 305 301 303 308 313 311 308 309 305 302 304 305 306 306 305 303 303 303 302 303 304 305 304 304 305 304 304 304 304 305 304 305 304 305 305 304 305 304 304 304 303 303 303 303 303 302 302 302 302 302 302 302 302 302 301 301 301 302 302 302 302 302 302 301 301 301 301 300 300 299 298 297 296 299 308 312 312 312 313 314 314 316 316 317 318 319 319
305 304 306 307 307 306 305 303 305 306 304 302 305 309 313 313 311 308 304 302 304 307 307 306 305 304 304 304 303 304 305 305 304 304 304 304 303 304 304 304 304 304 305 304 304 304 305 304 303 303 303 303 303 303 303 302 303 302 302 302 303 302 302 302 302 301 301 302 301 301 302 302 301 301 301 301 301 300 300 300 299 298 297 297 300 305 310 311 312 313 313 314 315 315 316 317 318
306 306 308 309 307 308 308 303 304 307 305 303 307 310 313 314 311 306 302 302 305 307 308 307 306 306 305 304 304 304 304 305 304 303 303 303 304 304 304 304 304 304 305 305 304 304 305 304 304 303 303 303 302 303 303 303 303 303 303 302 302 302 302 302 302 302 301 301 301 301 302 302 301 301 301 301 301 301 300 300 299 299 299 297 296 299 304 307 310 313 313 313 314 315 315 315 317
308 307 309 311 309 309 310 305 302 304 305 305 308 310 313 313 310 305 301 302 305 307 309 308 308 308 306 306 305 305 305 305 306 305 304 304 304 305 305 305 305 305 305 305 304 304 304 304 303 303 303 302 303 303 303 303 303 303 303 303 302 302 302 302 301 301 301 301 301 301 301 301 301 301 301 301 301 301 301 300 300 299 299 298 297 297 298 300 304 309 311 312 312 313 314 314 315
308 309 310 311 310 309 309 308 305 303 305 308 308 308 311 313 310 307 304 304 305 308 309 310 310 309 308 307 306 305 305 306 307 307 304 304 305 305 305 305 305 305 305 305 304 305 304 304 303 303 303 303 303 304 304 304 303 303 303 302 302 302 302 302 301 301 301 301 301 301 301 301 301 301 301 301 301 301 301 301 300 300 299 299 299 298 298 297 298 301 305 308 310 309 310 311 312
310 310 310 310 310 310 311 311 307 305 307 309 309 310 311 313 312 311 309 306 306 307 309 309 309 309 308 307 306 306 306 306 308 307 304 304 305 305 305 306 306 305 305 304 304 304 304 304 304 303 303 303 304 304 304 304 303 303 303 302 302 302 302 301 301 302 302 302 302 302 302 301 301 301 301 301 301 301 301 301 301 301 300 299 299 299 299 298 298 298 298 303 307 306 303 305 309
315 314 312 312 311 311 312 310 306 304 308 310 311 312 312 313 313 313 312 308 306 307 307 308 307 307 307 306 306 307 306 307 308 305 303 304 304 304 305 305 305 305 304 304 304 304 304 304 304 304 304 304 304 304 304 304 304 304 303 303 304 303 302 302 302 303 303 303 303 302 302 301 301 301 301 301 301 301 301 301 301 301 301 300 300 299 299 299 299 299 298 299 305 305 301 300 303
314 315 314 315 314 312 312 309 305 302 308 312 311 311 311 311 312 312 311 308 306 307 307 307 307 308 308 307 307 307 307 309 307 303 303 304 304 304 305 304 304 304 304 305 304 304 304 304 304 304 304 304 304 305 304 304 305 305 304 305 305 304 303 303 303 303 303 303 303 303 302 302 301 301 301 301 301 301 301 301 301 301 301 301 300 300 299 299 299 299 300 300 301 304 302 298 300
312 313 314 315 314 313 312 308 305 303 308 312 309 309 311 311 313 313 312 309 308 309 309 309 308 308 308 307 308 308 307 308 306 305 305 305 304 304 304 304 304 304 304 304 304 305 305 305 305 305 305 305 305 305 304 304 304 304 305 304 304 303 303 303 303 303 303 303 303 303 302 302 302 301 301 301 301 301 301 301 301 301 301 301 301 301 300 300 300 299 301 301 301 303 302 299 299
313 313 314 315 314 313 311 307 305 304 308 313 310 309 312 313 313 312 311 310 309 309 309 309 308 308 307 306 308 308 307 308 307 307 307 306 305 304 303 304 304 305 305 304 305 305 305 305 305 305 305 305 305 305 304 304 303 304 304 303 303 303 303 303 303 303 303 303 303 302 302 302 302 302 301 301 301 301 301 301 301 301 301 301 301 301 301 300 300 300 300 300 302 303 302 299 298
313 314 314 314 313 313 312 309 306 304 307 310 309 309 312 313 312 311 308 307 308 308 306 306 306 307 307 307 307 307 308 308 307 307 307 307 306 305 305 304 304 305 304 304 305 305 305 305 306 305 305 305 305 305 304 304 304 304 304 303 302 303 303 303 303 303 303 302 302 302 302 302 302 302 302 302 301 301 301 301 301 301 301 301 301 301 301 300 300 300 300 300 301 302 302 301 299
313 314 314 314 312 311 311 311 308 307 306 305 308 311 313 315 315 313 309 306 308 308 306 307 305 305 306 305 306 306 307 309 308 307 307 307 307 306 305 305 305 305 305 305 305 305 305 305 305 305 305 305 305 304 304 304 304 304 304 303 303 304 304 304 304 303 302 302 302 301 302 302 302 302 302 302 302 301 301 301 301 301 301 301 301 301 301 301 300 300 300 299 300 301 302 302 300
314 312 311 310 310 309 310 311 311 312 312 306 307 312 313 316 318 316 312 309 310 310 308 309 308 306 305 305 306 306 307 309 309 308 308 307 307 306 305 305 305 305 305 305 305 305 305 305 305 305 305 305 305 305 305 305 305 304 304 305 306 306 305 304 303 302 301 301 301 301 301 301 301 301 301 301 301 301 301 301 301 301 301 301 301 301 301 301 300 300 300 299 299 299 301 302 301
314 310 306 306 307 309 310 311 312 314 313 307 306 312 313 315 318 317 313 311 311 311 309 310 309 307 307 306 307 308 307 307 308 307 307 307 307 307 307 305 305 305 305 305 305 305 305 305 305 305 305 305 305 306 305 305 304 304 304 305 305 305 304 302 300 300 300 300 300 300 300 301 301 301 301 301 301 301 301 301 301 301 301 301 301 301 300 300 300 300 300 300 299 299 300 302 301
314 307 304 305 306 309 309 309 312 312 312 309 307 311 313 313 316 315 310 310 312 312 310 310 309 308 308 307 307 308 308 307 308 307 306 306 307 308 308 305 304 305 305 305 305 304 305 305 305 305 305 305 305 305 305 304 304 303 303 303 302 302 302 300 299 299 299 299 299 299 299 299 300 300 300 300 300 300 301 301 301 301 301 301 301 300 300 300 300 300 300 300 299 299 299 300 300
311 303 303 305 305 308 307 309 312 309 310 314 310 309 312 313 315 314 310 311 314 313 312 311 309 309 308 308 308 308 308 308 308 307 306 307 307 307 307 305 305 305 305 305 304 304 304 304 305 305 305 305 304 304 303 303 303 303 302 302 301 300 300 299 299 299 298 298 298 298 298 298 298 298 299 299 299 299 299 299 300 300 300 300 300 300 300 300 300 300 300 299 299 298 298 299 299
306 302 304 306 305 307 307 308 311 310 311 315 311 307 311 313 314 314 311 312 315 314 313 311 309 309 309 309 309 308 307 307 307 307 307 307 306 306 305 304 305 305 305 304 304 304 304 304 304 304 304 304 303 303 303 303 302 302 302 301 300 299 299 298 298 298 298 298 298 297 297 297 297 297 297 297 298 298 298 298 298 298 298 298 298 299 299 299 299 299 299 299 298 298 298 298 298
304 305 308 309 307 305 307 307 309 312 313 313 308 305 310 312 313 316 315 314 316 315 312 311 309 309 309 308 309 307 306 306 305 305 306 306 305 304 304 304 304 304 304 304 304 304 303 303 303 303 303 302 302 302 302 302 301 301 301 300 299 299 298 298 298 298 297 297 297 297 296 296 296 296 296 296 296 296 297 297 297 297 297 297 297 297 297 297 297 297 297 297 298 297 297 297 297
305 308 310 312 311 308 310 311 310 314 314 311 307 305 308 311 313 315 315 313 313 312 312 311 309 309 309 308 307 306 306 305 305 305 305 305 304 304 304 304 303 302 302 302 302 302 302 302 302 302 301 301 301 301 301 300 300 300 300 299 299 299 299 298 298 297 297 297 297 296 296 296 295 295 295 295 295 295 295 295 295 295 294 295 295 295 295 295 295 295 296 295 296 296 296 296 296
307 310 311 313 314 312 313 313 312 313 313 309 306 306 309 312 313 314 314 313 311 310 311 311 310 309 309 308 307 306 306 305 306 306 305 305 305 305 304 304 303 302 301 301 301 301 301 300 301 300 300 300 300 300 300 300 299 299 299 299 299 299 299 298 298 297 297 297 296 296 296 295 295 294 293 293 293 293 293 292 292 291 291 292 293 293 294 293 293 293 293 294 294 294 294 295 295
309 312 313 314 314 313 314 313 311 312 312 308 305 307 312 313 313 314 313 311 309 306 306 308 310 310 309 308 307 306 306 306 306 306 305 306 306 306 305 303 303 302 301 300 300 300 300 299 299 299 299 299 299 299 299 299 299 299 299 299 299 298 298 298 298 297 297 296 296 295 294 294 294 293 292 292 291 291 290 289 289 288 288 289 289 289 290 290 289 289 290 291 291 292 293 293 293
310 309 310 313 314 313 314 314 312 313 313 309 305 309 314 313 312 312 310 308 306 304 303 303 305 308 308 307 306 306 306 305 306 306 305 306 306 305 304 303 302 301 300 299 299 299 299 298 298 298 298 298 298 298 298 298 298 298 298 299 298 298 298 297 297 296 295 295 295 294 293 292 292 291 291 291 290 289 288 287 286 286 286 286 286 286 286 286 286 286 286 287 288 289 290 291 291
309 305 309 313 312 312 313 312 312 312 313 312 310 312 314 314 314 312 308 307 306 304 304 303 303 305 306 306 306 306 306 305 305 305 304 304 304 304 303 302 301 300 299 299 298 298 298 297 297 297 297 298 298 298 298 298 298 298 298 298 298 298 297 296 295 295 295 295 294 293 291 290 290 289 289 289 289 288 287 286 285 285 285 285 285 285 285 284 284 284 284 285 286 286 286 288 289
309 308 312 310 306 309 313 310 307 309 313 315 313 313 313 313 314 312 308 307 307 306 305 304 305 305 305 307 307 307 306 305 304 305 304 303 303 303 302 301 300 299 299 298 298 298 297 297 297 297 297 297 297 298 298 298 298 298 297 297 296 295 294 293 293 293 293 293 292 290 288 288 287 287 287 286 287 286 286 286 285 285 284 284 284 284 284 284 283 283 283 284 284 285 285 285 286
309 311 310 306 304 308 311 312 311 312 315 315 312 312 312 311 313 314 313 311 309 308 306 306 306 306 306 308 308 308 307 305 304 304 303 303 303 302 301 300 299 299 298 298 297 297 297 297 297 297 297 297 297 297 297 297 296 296 295 294 294 292 292 291 291 292 292 291 289 287 286 286 286 285 285 285 285 285 285 285 285 284 284 284 284 284 283 283 283 282 282 282 283 284 285 284 284
307 309 304 305 311 312 311 312 313 313 314 314 312 310 310 311 312 314 316 316 313 309 308 307 307 306 307 308 308 307 306 304 303 303 302 302 302 302 300 299 298 298 297 296 296 296 296 296 297 296 296 296 296 296 295 295 294 294 293 292 291 290 290 289 289 289 289 287 286 286 286 285 285 284 284 284 284 285 285 284 284 284 283 283 283 283 283 282 282 282 281 281 281 282 284 284 284
303 306 303 304 309 311 311 311 311 312 313 313 313 312 311 312 313 313 315 316 314 311 309 308 308 307 307 308 308 307 306 304 303 303 302 302 302 301 300 299 298 297 296 296 295 296 295 296 296 295 295 295 294 294 294 293 293 292 290 289 289 288 288 287 287 287 286 285 285 285 284 284 284 284 284 284 284 284 284 284 284 283 283 283 283 283 283 282 281 281 281 281 281 281 283 283 283
306 308 308 307 306 307 309 309 308 311 313 312 313 313 312 314 315 314 314 315 313 312 311 310 309 308 308 308 308 308 306 304 304 303 302 302 301 300 299 298 297 296 296 295 295 295 295 295 295 294 294 293 293 293 292 291 291 290 289 288 287 286 286 286 285 285 285 284 284 283 283 283 283 283 283 284 284 284 284 283 283 283 282 282 282 282 282 282 281 281 280 280 281 281 282 283 283
306 309 310 310 309 309 310 311 308 308 310 310 311 312 313 316 317 315 314 314 312 310 311 311 311 309 308 308 308 308 307 304 304 303 302 301 301 299 298 297 296 296 295 295 295 294 294 294 293 293 293 292 292 291 290 290 289 288 287 286 286 285 285 285 284 284 283 283 283 282 282 282 282 282 283 283 283 283 282 282 282 282 281 281 281 281 281 281 281 281 279 279 280 281 282 282 282
Wind_Speed
9 9 6 1 1 3 2 1 2 1 2 1 0 1 1 1 1 1 3 3 1 2 3 1 3 3 1 2 3 5 6 5 3 2 2 3 1 2 2 4 4 2 1 0 1 2 3 5 6 6 6 6 6 6 6 7 8 9 10 11 11 11 12 12 12 12 13 13 14 14 14 15 15 16 17 18 18 19 20 20 21 23 23 24 24 24 24 23 23 23 22 21 21 22 22 22 21
9 8 5 2 1 3 1 1 3 1 2 2 2 1 2 2 2 2 2 3 1 4 3 2 3 1 2 4 4 5 6 6 4 3 1 1 2 2 3 4 3 2 1 0 1 2 2 4 5 6 7 6 6 6 6 7 8 9 10 10 11 11 11 12 12 12 13 13 14 14 14 15 16 17 18 18 19 19 19 20 21 22 23 23 24 24 24 23 23 23 22 21 21 22 22 21 21
8 7 5 3 1 1 1 1 3 1 3 2 2 2 2 3 2 1 2 2 4 4 4 3 2 2 3 4 4 4 2 3 4 2 1 3 2 1 1 3 4 3 2 1 2 2 2 3 4 5 6 6 6 5 6 7 7 8 9 10 10 11 11 11 12 12 13 13 14 14 15 16 16 18 18 19 19 19 19 20 21 21 22 23 24 24 25 24 23 23 21 21 20 21 21 19 19
7 6 5 3 1 1 1 2 2 2 2 1 1 3 3 2 1 3 4 3 4 3 4 4 2 2 5 5 1 3 3 1 1 3 1 1 0 2 1 3 3 3 1 1 2 3 1 2 3 5 5 5 6 5 6 6 7 8 9 10 10 11 11 12 12 12 13 13 14 14 15 16 17 18 19 19 19 19 19 20 21 22 22 23 23 24 24 24 22 21 20 20 19 19 20 19 18
6 5 4 3 2 1 0 1 0 3 1 0 0 3 3 2 3 4 4 2 2 3 3 3 2 2 4 5 1 1 1 1 2 4 1 1 1 0 1 3 3 3 2 2 3 3 1 2 2 4 4 3 5 5 5 6 7 8 9 10 10 11 11 12 12 13 13 13 14 14 15 16 18 19 19 19 18 18 18 20 21 22 23 23 24 23 23 22 21 20 20 19 18 17 18 19 18
4 4 3 1 0 1 1 1 2 3 1 1 1 3 2 2 4 4 5 3 2 2 2 3 2 0 3 2 4 3 1 1 3 5 4 1 2 1 1 2 3 4 2 3 3 2 1 1 1 3 3 2 4 4 5 6 7 8 9 10 11 11 11 12 13 13 13 14 14 15 16 17 18 20 19 18 18 18 18 19 20 21 23 24 25 24 23 22 22 22 20 19 18 17 17 18 18
4 4 3 2 2 1 3 2 2 2 1 1 2 3 3 3 4 5 6 4 3 3 3 3 2 3 3 1 4 5 5 4 2 3 5 4 3 2 2 3 4 4 3 3 2 1 1 1 1 2 3 2 3 4 5 7 8 9 9 10 10 11 11 12 13 13 13 14 14 15 17 18 19 20 18 17 17 17 18 19 20 22 23 25 25 25 24 23 23 22 21 20 19 18 18 18 18
1 2 1 1 1 1 2 2 2 1 1 1 2 2 3 4 5 5 6 4 2 3 4 4 3 4 1 0 2 2 7 10 6 4 6 6 4 3 2 4 4 5 4 2 2 2 2 3 3 3 3 4 4 5 6 8 9 9 9 10 11 11 12 12 13 13 13 14 14 15 17 18 19 19 17 16 17 17 18 19 21 22 23 25 25 25 24 24 23 22 21 20 20 20 20 19 18
2 1 1 2 2 1 1 2 1 1 1 2 2 2 2 3 5 5 6 4 1 3 4 4 5 5 2 1 4 1 4 9 11 9 8 8 6 4 3 4 4 4 4 3 3 3 4 4 4 5 5 5 6 7 7 8 9 10 9 10 11 11 12 12 13 13 14 14 14 16 17 18 19 18 16 15 16 17 18 19 21 22 23 25 24 23 24 24 22 21 21 21 21 22 21 21 19
1 2 1 1 1 2 2 2 1 1 2 1 3 3 3 5 6 4 5 4 2 3 2 1 5 7 4 4 5 1 2 5 10 11 9 9 7 5 3 3 4 4 5 4 4 4 4 5 5 6 6 6 7 7 8 9 10 10 10 10 11 11 11 12 13 14 15 14 15 16 17 18 19 17 16 15 15 17 19 20 21 22 23 25 23 22 23 23 22 22 22 23 23 23 21 19 18
2 2 0 1 3 3 3 3 2 1 1 1 3 4 4 6 6 4 4 3 3 3 2 3 4 7 5 5 2 1 2 4 7 8 9 11 8 6 5 4 3 3 4 4 4 4 4 5 5 6 6 6 7 7 8 8 10 11 10 10 10 11 12 12 13 15 15 15 15 16 16 18 18 16 15 15 16 18 20 21 22 24 24 24 24 22 22 22 23 23 22 23 23 20 17 16 16
2 2 1 2 3 2 1 2 2 2 1 2 2 4 4 7 7 5 7 5 4 5 5 7 2 2 4 3 1 2 2 5 5 6 9 12 10 7 6 4 3 3 3 4 4 4 4 4 5 6 6 7 7 7 7 8 9 11 11 10 10 11 12 13 14 15 15 15 15 15 16 18 18 16 14 14 16 18 21 22 23 25 25 25 24 23 23 22 22 23 22 22 20 16 16 16 16
1 2 2 2 1 1 0 2 2 3 3 2 2 3 3 8 7 5 6 5 5 5 5 8 3 1 5 2 1 2 2 2 4 8 11 12 11 9 7 5 4 4 4 4 4 4 4 5 6 6 6 7 7 6 6 7 9 10 10 10 10 11 12 13 14 15 15 15 15 15 16 17 17 15 13 14 16 17 19 21 24 26 25 25 24 23 23 22 23 22 21 19 17 16 16 16 16
1 1 1 1 0 1 1 2 1 3 2 3 3 3 4 5 3 2 4 5 7 4 0 3 4 3 5 3 2 3 3 2 6 10 12 13 12 10 8 7 5 4 4 4 4 5 5 6 6 7 7 6 6 6 6 7 8 9 10 10 10 10 12 13 14 15 15 15 15 15 16 17 17 15 12 13 15 16 18 21 25 27 25 23 23 23 22 22 23 22 20 18 16 15 15 15 14
0 2 1 1 1 1 2 2 1 2 1 4 2 3 5 2 0 2 5 5 3 2 2 2 5 3 2 3 2 4 5 3 7 11 12 13 12 12 10 9 7 6 6 5 6 6 6 6 6 7 7 6 5 5 5 6 8 9 9 10 10 10 12 12 13 14 14 14 15 15 15 16 16 15 13 13 14 15 19 22 26 27 24 21 22 23 22 22 23 21 19 17 13 12 11 9 9
0 2 1 1 2 1 3 2 1 2 0 4 2 3 5 3 1 3 2 3 2 2 2 4 6 4 2 2 1 6 5 4 7 11 13 13 13 13 12 11 9 8 7 7 7 7 7 7 7 7 7 6 5 5 5 6 7 8 8 9 9 10 11 12 12 13 14 14 15 15 15 16 16 16 14 13 13 15 19 22 26 27 24 22 22 22 21 22 22 20 17 14 11 9 7 4 1
1 1 2 3 2 2 3 5 3 1 2 4 3 4 6 3 3 2 1 3 5 3 4 6 6 6 7 3 2 6 4 3 7 11 13 12 11 11 11 10 9 8 7 7 7 8 7 7 7 7 6 6 5 5 5 5 7 8 8 9 9 10 11 11 12 12 13 14 15 16 16 17 17 17 16 14 13 15 18 22 26 26 23 24 23 19 20 21 21 18 15 11 10 9 6 5 4
1 1 2 3 2 2 2 4 3 1 2 4 5 5 5 2 3 3 1 5 7 5 7 9 9 11 13 9 5 6 4 3 7 10 11 11 9 9 9 8 8 7 6 6 6 8 8 7 7 6 6 6 5 5 4 5 6 7 8 8 8 9 10 11 11 12 13 14 16 17 18 18 17 18 17 15 14 15 17 21 25 25 25 27 25 19 18 20 19 17 14 10 10 10 7 6 5
0 1 3 3 1 1 1 0 1 0 2 4 4 3 4 2 2 3 3 5 5 7 9 9 11 14 16 15 14 12 8 6 7 9 11 11 11 10 9 7 7 8 6 5 5 7 8 7 6 5 5 6 5 4 4 5 6 7 7 8 8 9 10 11 11 11 13 14 16 17 18 18 18 18 18 16 14 15 18 21 23 25 27 29 27 20 18 19 17 15 13 10 8 9 7 5 4
0 1 4 2 2 1 1 1 1 0 1 2 3 3 5 4 2 2 4 4 5 9 9 7 10 12 11 12 13 14 13 12 9 10 11 12 12 11 10 8 7 7 6 6 6 6 7 7 6 5 5 5 4 4 4 4 5 6 7 8 8 9 9 10 10 11 12 14 15 17 17 18 19 19 19 18 17 16 18 20 22 26 27 28 27 20 20 20 15 13 12 10 7 7 7 5 4
1 1 3 2 2 0 2 1 1 0 1 0 3 3 4 3 2 3 3 5 7 8 8 8 8 6 5 5 5 8 13 14 12 11 12 13 12 12 13 11 9 8 7 8 8 6 6 7 5 5 5 4 3 3 4 4 5 6 6 7 8 8 9 9 10 11 12 14 15 16 17 18 19 19 20 21 19 18 17 19 20 24 27 28 25 19 20 21 15 12 10 8 6 6 6 5 5
1 1 2 3 1 1 1 1 1 0 0 1 3 3 2 2 3 6 6 7 5 0 2 6 6 1 1 2 1 3 8 11 12 12 13 13 12 12 14 14 12 10 10 9 7 6 6 7 5 4 4 3 3 3 3 4 5 5 5 7 8 7 8 8 9 10 12 13 14 15 16 17 18 19 20 21 21 19 17 18 19 21 24 27 23 16 20 22 17 13 10 7 5 5 6 4 3
2 1 2 2 0 1 1 1 1 1 2 3 2 1 1 1 4 3 8 14 6 3 3 2 2 2 3 2 2 3 6 8 10 11 11 11 11 12 13 13 12 10 10 9 7 6 5 6 5 4 3 2 2 3 3 4 5 6 6 8 8 7 8 7 8 9 11 13 14 14 15 16 17 18 20 20 21 20 17 18 18 19 21 26 24 16 20 24 19 15 11 7 5 5 6 4 3
3 0 2 2 0 2 2 1 1 2 3 1 1 2 2 4 4 1 7 17 12 4 0 2 3 2 3 3 4 4 4 5 6 6 8 10 12 12 13 12 10 9 9 8 7 5 4 5 5 4 3 2 2 2 3 4 5 6 7 8 8 8 8 6 7 9 11 13 13 13 13 14 15 16 18 20 21 20 19 19 17 18 19 24 25 18 21 25 21 16 10 8 6 6 7 6 4
2 1 4 3 0 2 1 1 1 2 2 1 1 4 3 3 3 3 12 14 9 6 3 4 5 3 4 4 5 5 4 5 4 4 7 10 12 13 14 12 10 8 7 6 4 3 3 5 5 4 3 2 1 2 3 4 5 6 7 8 8 8 8 6 8 9 11 12 12 13 12 13 14 15 17 19 20 20 21 20 17 17 18 20 24 20 20 22 19 17 13 10 8 7 8 7 5
0 2 4 3 1 2 2 2 0 0 1 0 3 6 2 0 2 7 15 7 0 3 4 4 5 7 9 8 7 6 5 5 5 4 6 9 11 13 12 10 8 6 5 3 2 2 3 5 4 4 3 3 1 1 2 3 4 5 7 7 7 8 7 7 8 9 10 11 11 12 12 13 13 14 16 17 19 19 20 20 17 17 17 18 22 20 18 16 15 18 17 14 13 11 10 10 9
3 5 4 3 1 2 2 1 1 1 1 1 4 7 3 1 1 6 5 1 1 3 4 3 4 8 9 8 9 7 6 7 6 5 6 8 10 12 11 8 7 5 4 3 2 3 3 3 3 4 4 2 1 0 1 3 4 5 6 7 7 7 7 7 8 9 9 10 10 10 11 12 13 13 15 16 17 18 19 19 18 18 17 18 19 20 18 14 13 17 20 19 17 14 13 13 16
4 4 4 2 1 2 1 0 2 2 1 2 4 8 5 3 5 9 3 3 1 3 4 3 4 6 6 7 8 7 8 9 6 5 8 9 8 10 9 7 6 5 5 4 4 4 3 2 2 3 3 3 2 1 1 2 4 5 6 6 6 6 6 7 7 8 8 8 9 9 11 12 12 12 13 15 16 17 18 19 19 18 18 17 17 20 19 15 13 15 18 19 16 16 15 13 14
3 1 1 1 2 3 0 1 2 3 0 2 3 7 6 8 10 10 2 1 2 4 6 4 4 4 4 5 5 6 8 8 6 7 11 10 10 11 10 7 6 6 6 6 6 5 3 2 2 3 3 3 2 1 1 2 3 5 5 5 5 5 5 6 6 7 7 7 8 9 10 11 11 12 12 13 15 16 17 18 18 18 18 17 16 19 18 15 14 15 15 15 16 18 18 14 11
2 1 2 1 3 2 1 1 1 2 0 1 3 5 3 8 12 8 3 1 3 5 6 4 3 2 2 3 3 5 6 7 8 10 12 13 14 14 12 10 8 7 7 7 7 6 4 3 3 3 3 3 3 2 1 2 3 4 4 4 4 4 4 5 6 6 6 6 8 8 9 10 11 11 11 12 13 14 15 15 17 18 17 17 16 16 16 14 14 15 15 13 15 18 18 17 13
1 1 1 1 2 1 3 2 3 2 1 0 3 5 4 3 7 5 3 1 3 5 5 3 3 1 1 2 3 4 4 6 8 10 13 14 14 13 13 12 9 9 8 9 9 8 6 4 3 4 3 3 3 2 1 1 2 3 3 3 3 3 4 5 6 6 6 6 7 8 8 9 10 11 11 11 12 13 13 13 15 16 16 17 16 15 14 14 14 14 15 14 12 13 14 15 13
0 2 2 1 2 1 3 2 3 1 1 1 3 5 6 4 1 4 3 1 1 4 4 3 3 2 2 2 3 3 3 4 6 9 11 12 12 12 12 11 10 9 10 10 10 9 7 5 4 3 3 3 2 2 0 1 2 2 2 2 2 3 4 5 5 5 6 6 6 6 7 8 9 9 10 11 11 11 12 12 13 14 15 16 16 15 14 14 14 13 14 15 12 12 13 12 10
1 2 2 1 2 2 1 2 2 2 1 3 5 5 6 4 2 4 3 2 2 4 4 5 4 3 3 3 2 3 3 3 5 7 7 7 8 8 8 8 9 11 11 12 11 10 8 5 4 3 3 3 2 1 1 2 2 2 2 3 3 4 4 5 5 6 6 6 6 5 6 6 7 8 8 9 10 11 11 11 12 12 14 15 15 16 16 15 15 12 12 14 13 12 12 13 10
2 2 2 1 2 2 1 2 1 2 2 4 5 7 11 9 3 3 6 5 4 6 7 8 6 5 4 3 3 3 3 3 4 5 5 5 6 6 7 8 10 12 12 12 12 10 8 5 5 4 3 3 2 2 2 1 1 2 3 3 4 5 5 5 6 6 6 5 5 5 5 5 6 6 7 8 9 10 11 11 11 11 12 14 14 14 16 16 16 14 12 12 13 13 12 13 11
2 3 3 1 2 4 3 1 1 2 2 5 6 8 14 16 12 10 9 7 6 9 9 8 8 7 5 4 5 4 4 5 4 4 5 6 6 6 7 8 9 11 12 13 12 10 8 6 5 5 4 4 3 2 2 1 1 2 3 4 4 5 6 5 6 6 5 5 5 5 5 5 4 5 5 6 7 8 10 10 11 11 12 12 13 13 14 16 16 15 15 12 11 13 16 14 11
0 1 2 2 3 3 2 1 2 3 3 7 9 10 13 15 14 13 9 6 7 10 9 7 7 7 6 6 5 5 6 6 3 3 5 6 7 7 8 8 10 12 13 13 12 10 8 7 6 5 5 4 3 2 2 2 2 2 4 4 5 6 7 6 6 5 5 5 5 5 5 5 4 4 4 4 5 6 8 9 10 11 12 12 13 13 14 15 16 15 15 15 11 10 17 19 13
1 1 1 2 3 3 1 2 2 1 4 6 6 8 13 15 16 15 7 6 8 11 10 9 8 8 7 7 7 7 7 4 2 3 6 7 7 9 10 10 12 13 14 13 11 10 8 8 7 6 5 4 3 2 2 2 2 3 4 5 5 6 7 6 6 5 6 6 6 6 6 6 4 3 3 3 4 4 6 8 9 10 12 12 12 13 14 14 15 15 12 12 13 11 15 22 17
0 1 2 2 3 3 1 2 1 1 3 3 1 7 14 15 16 14 7 7 10 11 10 10 9 8 7 7 8 7 5 3 3 5 6 8 8 10 11 13 13 13 13 12 10 10 9 8 8 7 5 4 3 3 2 2 2 3 4 5 6 7 7 6 6 6 6 6 6 7 7 7 6 5 4 4 3 3 4 6 7 9 10 11 11 11 13 13 14 17 13 9 10 10 13 20 21
0 1 2 2 2 3 0 2 1 0 3 3 3 8 15 16 14 12 9 9 8 6 7 6 6 7 7 8 8 6 6 5 6 7 8 8 8 10 12 13 13 13 12 11 10 10 9 9 8 6 5 4 3 3 3 2 2 2 3 6 8 8 7 6 7 7 7 7 7 8 9 9 8 8 6 5 4 4 4 4 5 6 7 8 10 11 12 13 14 16 16 12 9 8 10 16 21
1 1 2 2 0 2 2 2 1 1 2 5 7 8 11 12 9 6 5 5 4 3 5 4 4 6 5 4 4 6 8 9 9 9 9 9 8 8 11 12 12 12 11 10 10 10 9 9 8 7 6 5 4 4 3 3 2 2 3 6 8 8 8 8 9 9 8 9 10 10 10 10 10 9 9 8 7 6 5 4 4 5 6 6 8 10 11 13 14 14 15 15 12 8 8 12 16
1 2 2 2 1 1 2 2 3 2 2 3 8 8 6 4 3 3 1 1 3 2 4 6 6 6 3 2 2 5 7 8 10 11 10 9 8 8 10 12 12 11 11 10 10 10 10 9 8 7 7 6 5 4 4 3 2 3 5 8 8 8 8 8 8 9 10 11 12 12 12 11 11 10 10 9 9 8 7 6 6 6 6 6 7 8 10 11 13 14 14 14 14 11 8 8 11
2 3 2 0 1 1 3 4 5 3 2 1 4 6 3 0 2 4 1 1 4 2 3 6 6 5 4 5 5 5 5 4 5 7 8 8 7 8 9 11 12 11 11 11 10 10 10 10 9 8 7 6 5 4 4 3 2 4 8 9 7 7 7 7 8 9 11 13 14 14 13 12 12 12 12 11 10 10 10 9 9 9 9 9 9 8 9 9 10 11 12 12 13 13 9 7 9
1 1 1 1 1 1 2 3 3 3 2 1 1 4 5 3 4 2 1 3 5 4 5 6 5 5 6 6 6 6 6 5 3 4 6 7 7 8 8 10 12 12 12 11 11 11 10 10 10 9 8 7 6 5 4 2 3 6 10 10 10 10 9 9 11 13 14 15 16 16 15 14 14 14 14 13 13 13 12 12 11 11 11 11 11 10 10 9 9 9 10 10 11 12 10 8 9
1 1 1 2 1 0 0 1 2 3 3 1 0 2 5 6 3 1 2 5 6 6 7 7 5 6 6 6 5 6 7 7 6 6 7 7 8 8 8 10 12 12 12 12 12 12 12 11 11 10 9 7 6 5 4 4 7 10 12 13 14 14 14 14 16 17 17 17 18 18 18 18 17 17 17 16 16 15 15 15 14 14 14 13 13 13 12 11 11 10 9 10 10 12 12 9 8
1 2 1 1 1 1 1 2 2 1 3 2 1 2 4 6 3 1 1 4 8 9 9 8 7 7 6 6 6 6 5 5 5 7 8 7 7 7 8 11 13 13 13 13 14 13 13 12 11 10 9 8 7 6 7 8 11 13 15 17 18 19 19 19 18 19 19 19 20 20 20 21 20 20 19 19 19 18 18 18 18 18 17 17 16 15 15 14 13 14 13 12 12 12 13 11 9
2 4 2 3 2 2 1 2 1 1 3 2 2 2 4 5 3 1 1 3 7 7 6 7 6 6 6 6 7 6 5 4 4 5 6 6 6 7 10 12 14 14 14 15 15 15 14 13 13 12 11 10 10 10 11 13 15 16 18 20 21 21 20 20 19 20 20 19 21 21 21 21 22 22 21 21 21 21 21 21 21 21 20 20 19 18 18 17 17 17 16 16 15 14 14 13 12
2 4 2 2 2 1 0 1 1 3 3 1 2 1 3 4 4 2 2 2 3 3 4 6 6 5 6 6 6 7 7 5 5 5 6 7 7 8 10 12 13 15 16 17 17 16 16 15 15 14 14 14 15 15 16 17 18 19 20 21 22 22 22 21 20 20 20 20 20 21 21 21 22 23 22 23 23 23 23 23 23 23 23 22 22 21 20 20 19 19 19 18 18 17 16 14 14
1 2 1 1 1 1 2 2 2 4 2 2 2 1 2 5 4 2 2 2 3 4 5 8 10 9 7 6 6 6 6 6 7 6 7 8 8 8 9 10 12 14 16 18 18 18 17 17 17 18 19 18 19 19 19 20 20 20 21 21 22 22 22 22 22 21 21 21 20 19 18 18 19 21 22 23 25 24 24 24 25 24 24 24 23 22 22 21 21 21 21 21 21 20 19 17 16
2 1 1 3 1 1 2 2 2 3 0 3 1 1 3 7 8 7 6 5 5 5 5 5 9 10 9 7 7 5 5 6 7 7 7 8 8 9 10 11 12 12 15 18 19 19 19 19 20 21 21 21 21 21 20 21 21 21 22 22 22 22 22 23 23 23 22 22 22 19 16 14 15 18 21 23 25 25 25 26 26 26 25 25 24 23 23 23 22 21 22 21 21 20 19 18 17
2 1 1 3 2 1 2 1 2 2 1 2 0 1 4 6 7 8 9 5 2 2 4 5 3 6 7 7 6 5 5 6 6 7 7 7 8 10 11 11 11 11 14 18 19 20 21 21 22 23 23 22 22 22 21 21 21 21 21 21 22 22 23 23 23 24 23 23 24 21 17 16 17 19 21 23 24 25 26 26 26 26 26 25 25 25 24 25 23 22 22 21 19 18 17 17 17
2 1 2 2 2 2 3 2 2 2 1 1 1 2 4 3 1 1 3 3 3 3 3 3 4 1 3 4 5 5 6 5 5 5 6 6 8 10 10 10 11 12 15 18 20 22 23 22 22 23 23 23 22 22 22 22 22 21 21 22 22 23 23 24 24 24 24 24 25 23 21 20 20 21 23 24 24 25 26 26 26 26 26 25 25 25 25 25 25 24 23 22 20 18 17 15 15
2 0 1 2 1 1 1 1 1 2 3 2 2 3 4 4 4 1 1 3 3 2 1 2 3 2 4 4 5 6 6 6 5 5 6 6 8 9 9 10 10 12 15 17 20 23 24 23 23 23 24 23 23 22 22 22 22 22 22 22 23 24 24 25 25 25 25 25 26 24 23 22 22 24 25 24 24 25 25 25 26 26 26 25 25 25 25 25 25 25 24 23 21 20 19 17 15
2 2 1 0 1 1 1 1 1 1 3 2 1 4 4 4 6 1 1 2 3 2 3 4 5 6 6 6 6 6 6 6 6 6 7 8 9 9 10 10 11 12 13 16 20 23 25 25 25 25 25 24 23 23 23 23 23 23 23 24 24 25 25 25 25 26 26 26 26 25 24 24 24 25 25 24 23 23 24 24 24 24 25 25 25 25 25 25 25 25 24 23 20 18 18 18 17
1 1 1 1 1 1 0 1 1 1 4 2 1 5 5 3 3 2 2 2 4 4 5 5 6 7 7 7 7 7 6 6 6 7 7 8 10 11 11 11 12 13 14 17 21 24 24 25 26 26 26 25 24 24 24 24 24 24 24 25 25 25 25 25 26 27 26 26 25 24 24 25 25 25 25 24 23 23 23 23 23 23 23 24 24 24 24 24 24 23 24 23 21 18 16 17 17
2 1 1 0 2 1 1 1 2 2 4 3 2 4 4 4 4 3 1 3 5 6 6 7 9 10 9 8 8 8 7 6 6 7 7 8 10 12 13 13 14 15 17 19 22 24 24 25 25 25 25 25 25 25 25 25 25 25 25 25 25 25 26 26 26 27 27 26 25 24 24 25 25 24 24 24 23 23 23 22 22 22 22 22 22 23 23 23 23 22 22 22 21 19 16 15 17
1 2 1 0 2 2 0 0 1 2 3 3 2 3 3 5 4 4 4 4 5 8 8 9 12 12 10 9 9 9 8 8 8 8 8 9 11 13 14 15 16 18 19 21 22 22 24 25 25 24 25 25 25 26 26 25 25 26 26 25 25 25 26 26 27 27 26 26 25 24 24 24 24 24 24 24 23 22 22 21 21 21 21 21 21 22 22 22 22 22 21 20 20 19 16 14 14
3 3 3 3 1 1 1 1 0 1 3 2 2 4 5 3 3 5 6 4 4 8 9 10 11 11 11 10 9 9 9 9 9 9 9 10 11 13 13 14 15 17 19 20 20 21 22 24 24 24 25 25 25 26 26 26 26 27 26 26 26 26 26 26 27 27 26 26 25 24 24 23 24 24 24 23 22 21 21 21 20 20 21 21 21 21 21 21 20 20 21 20 18 17 15 14 13
1 2 3 4 3 2 3 3 1 0 2 2 1 5 7 2 2 4 4 2 2 5 7 8 9 11 11 9 9 9 9 10 10 10 9 10 12 13 14 14 15 16 17 18 20 20 20 22 22 23 25 25 26 27 27 27 27 27 27 27 26 26 26 27 27 27 26 25 25 24 23 23 24 24 23 22 22 21 21 20 20 20 20 20 21 20 20 20 18 18 20 20 17 16 15 13 13
Wind_Direction
181 185 186 208 156 171 179 282 255 148 264 258 118 278 129 89 20 211 177 152 230 176 179 150 134 142 156 313 320 320 294 260 307 314 18 75 172 290 254 221 211 183 178 278 115 93 50 48 41 45 31 360 352 352 351 351 348 346 341 340 338 338 336 335 334 333 333 331 332 330 330 330 329 328 325 325 323 323 322 320 318 318 319 318 318 316 315 313 312 311 311 308 304 303 302 298 293
184 190 194 210 178 213 202 308 265 181 239 225 138 302 81 141 202 229 184 178 73 103 147 156 153 212 317 326 304 292 261 229 284 332 34 344 283 299 258 225 198 191 201 303 121 115 61 57 41 42 35 5 357 357 355 353 348 345 339 339 338 337 336 334 335 333 332 331 332 331 332 332 330 329 327 326 325 325 323 321 320 320 320 317 316 314 312 311 309 307 306 304 301 299 300 297 292
184 183 190 202 147 231 181 222 262 239 234 224 120 108 122 190 196 95 96 125 83 104 147 139 173 235 234 243 245 264 261 212 258 261 244 281 294 33 227 208 183 190 201 169 137 125 74 64 36 36 37 8 1 359 355 354 347 344 337 336 336 336 335 333 334 332 332 332 332 332 332 332 331 330 329 328 328 327 324 323 323 322 321 318 317 315 313 311 308 305 303 302 299 296 296 296 292
178 176 187 221 205 206 215 234 273 256 237 211 106 117 183 228 87 98 99 104 98 142 167 163 202 187 229 250 249 262 268 229 205 215 227 266 334 38 161 186 174 180 181 159 150 134 94 75 40 31 39 8 360 360 352 351 344 339 335 333 334 334 334 334 334 333 332 332 332 332 332 331 331 330 330 331 330 327 325 325 324 323 322 320 319 319 316 312 308 304 301 300 297 294 294 295 292
176 175 192 239 245 224 167 259 244 249 248 86 281 122 189 203 108 121 121 135 152 196 184 191 217 127 240 269 277 261 261 186 147 194 217 101 169 358 175 174 170 184 180 157 153 144 125 75 40 26 36 4 353 357 347 344 337 334 332 332 334 334 333 334 334 333 332 332 333 333 332 331 331 331 331 332 330 327 326 326 324 324 323 320 320 318 316 312 305 302 299 298 296 291 292 293 291
144 135 108 91 86 359 189 223 212 234 34 8 304 109 151 157 138 134 134 150 170 219 214 219 260 266 250 236 226 254 3 101 131 183 201 184 189 181 170 173 182 193 190 162 149 151 163 52 27 13 22 349 336 342 339 337 332 331 332 333 335 333 332 333 334 334 333 334 334 333 333 332 332 332 333 334 331 328 327 326 324 323 322 320 320 318 316 312 305 302 299 298 296 292 291 290 289
142 146 86 102 118 327 240 244 239 229 57 349 331 93 116 136 146 143 156 173 177 202 214 219 289 280 258 181 228 236 235 225 136 170 183 187 186 171 174 181 195 203 196 173 164 175 227 316 317 337 347 321 311 318 327 330 332 333 333 335 336 333 331 333 335 336 335 336 336 335 334 334 335 334 335 334 331 329 327 327 325 324 323 320 320 320 317 311 305 302 301 299 298 293 289 286 286
117 171 63 235 178 345 246 247 257 249 51 320 314 84 93 121 155 165 176 187 183 181 196 200 224 254 249 122 248 189 224 229 216 205 187 191 187 176 187 195 206 210 210 204 226 258 279 293 298 306 309 303 299 306 319 326 333 337 335 337 336 333 331 334 337 337 338 338 337 336 337 338 337 335 336 333 331 331 330 329 327 326 324 321 321 323 319 311 306 304 303 299 298 296 291 285 281
32 10 205 240 223 228 234 243 257 262 224 210 233 183 106 135 166 180 186 190 214 191 198 189 199 239 28 235 255 126 215 232 222 221 205 199 192 193 198 206 214 217 226 237 261 282 288 291 293 292 291 292 295 302 314 323 332 338 337 338 337 333 332 335 338 339 340 340 338 337 340 341 339 337 335 333 333 333 332 331 329 328 325 323 324 325 320 315 311 309 308 303 300 299 296 287 276
58 13 189 185 230 228 235 233 217 227 199 201 237 201 162 158 168 193 204 198 193 187 177 152 209 241 314 292 265 162 204 231 223 222 211 203 198 204 211 218 226 226 231 246 271 290 294 293 288 285 283 282 289 297 309 319 330 337 337 338 336 333 332 336 338 340 342 342 340 339 343 344 343 339 336 335 335 335 335 334 333 332 327 325 327 327 321 317 315 314 314 310 304 300 297 292 278
185 59 10 203 224 232 235 232 219 220 171 245 249 197 169 156 163 191 214 223 192 200 157 150 218 234 258 279 255 124 237 244 227 217 205 207 205 207 218 230 245 246 237 245 270 290 294 294 286 280 279 279 284 291 306 315 326 334 336 336 334 333 332 336 339 341 344 344 342 342 345 346 346 343 339 337 337 339 340 340 339 334 331 329 329 328 323 317 316 316 316 313 308 299 295 294 283
210 128 215 227 233 249 268 264 264 284 246 221 195 151 158 154 167 196 204 217 189 211 205 183 203 217 221 256 198 127 240 249 232 214 204 205 209 213 222 235 255 266 257 257 268 281 284 293 290 282 281 282 283 287 303 312 322 331 333 334 333 334 334 337 341 342 346 346 344 344 346 348 350 346 341 339 340 343 343 343 341 338 337 335 332 330 325 319 317 317 317 315 311 302 294 292 286
247 151 194 221 268 289 318 287 288 296 263 197 102 100 159 166 184 212 190 200 192 207 213 191 180 224 244 269 156 191 189 224 210 203 202 204 211 219 227 240 251 267 273 271 267 268 275 287 290 287 287 283 283 286 300 309 319 328 330 332 334 335 335 338 341 344 347 348 346 345 347 351 353 349 344 345 346 345 345 343 343 344 342 337 335 332 326 321 323 325 323 321 318 309 296 288 281
278 153 219 194 101 292 221 274 268 268 251 110 80 120 170 184 209 231 178 203 205 197 48 180 186 230 254 245 199 193 144 147 196 194 199 205 213 221 231 241 250 266 274 274 266 266 268 279 287 288 292 287 283 287 297 307 316 323 328 330 335 336 336 339 341 345 349 348 348 348 349 353 354 352 350 350 349 346 346 346 347 348 344 339 338 336 330 328 330 329 328 328 323 311 298 289 277
183 140 60 148 160 235 206 254 331 267 235 103 98 145 176 213 334 206 210 232 212 114 38 185 199 234 236 212 178 133 136 160 190 194 201 207 216 225 234 242 250 260 267 272 266 267 268 274 283 289 295 290 284 287 294 305 313 322 327 331 336 337 336 338 341 345 351 351 351 351 352 354 356 355 352 352 348 346 348 350 352 351 346 340 340 341 337 335 333 329 330 333 328 317 308 300 280
63 133 104 205 206 219 196 197 176 257 119 102 103 149 183 189 151 215 235 290 296 125 216 200 197 256 271 240 79 113 144 184 190 198 205 211 219 229 237 244 251 257 262 268 267 269 271 273 278 288 296 294 293 291 295 305 313 322 328 333 337 336 336 338 342 346 352 354 355 355 354 357 358 357 353 352 349 349 351 355 358 356 348 342 343 345 342 339 336 336 337 335 338 338 333 336 304
302 202 206 228 211 206 191 179 184 236 75 118 149 175 194 174 164 231 12 269 254 192 217 221 209 243 250 245 108 133 160 188 194 197 203 214 222 230 237 241 247 254 260 265 271 271 270 273 276 286 294 294 298 294 300 310 316 327 330 334 337 336 336 338 343 348 355 358 358 359 0 1 359 358 356 353 352 351 353 360 5 0 355 354 354 352 348 346 342 343 344 340 357 8 12 30 54
245 212 220 227 204 203 191 184 194 328 63 134 159 185 206 191 165 185 221 223 236 243 238 237 238 243 243 247 220 198 209 198 196 196 202 214 221 228 233 234 237 248 259 263 272 273 271 272 274 283 289 292 300 300 310 319 324 331 332 335 337 336 337 340 345 349 356 0 1 3 6 4 359 0 358 352 349 350 354 4 8 3 1 3 1 357 354 355 352 351 355 358 9 15 22 33 30
199 143 230 230 186 106 52 172 187 61 68 112 147 181 209 220 146 165 237 217 208 248 242 227 242 247 242 241 234 226 229 227 210 203 209 216 221 229 234 235 238 247 257 262 270 275 274 270 271 277 278 287 300 311 325 332 333 335 335 338 337 337 338 341 346 350 356 0 2 5 8 4 1 3 360 354 351 353 358 5 10 8 6 3 1 1 356 359 0 359 10 21 18 14 19 32 32
212 206 237 229 51 48 67 310 343 76 50 99 142 157 213 220 133 168 249 254 223 240 240 217 234 247 240 231 227 224 224 228 223 217 222 226 228 232 237 241 244 248 256 266 275 277 271 266 268 269 270 284 302 323 337 340 341 342 341 340 337 337 338 340 346 351 354 358 2 5 6 4 6 6 2 3 1 360 1 4 8 9 10 3 0 6 2 2 6 5 18 30 26 13 13 22 29
177 230 261 57 36 338 136 232 316 327 313 7 136 146 217 200 164 216 240 266 243 234 236 229 234 241 230 208 202 213 217 222 222 223 230 234 234 236 242 246 250 257 266 274 280 276 262 259 264 265 268 285 310 333 341 345 350 350 345 341 340 336 335 338 344 349 351 355 0 3 4 5 10 9 5 7 7 5 4 3 4 7 11 6 1 6 6 7 13 13 22 32 31 19 16 22 19
192 169 4 61 42 302 97 272 316 185 236 170 158 172 229 135 201 224 223 243 248 309 253 236 237 275 284 223 181 203 210 216 219 222 231 236 239 241 245 250 256 265 273 277 279 275 258 255 261 263 269 286 315 336 345 355 358 356 349 343 344 336 333 336 340 346 346 349 356 2 3 6 11 11 9 8 9 9 4 3 4 5 10 8 4 6 8 13 24 27 29 33 30 23 27 38 26
245 123 68 93 87 333 359 333 260 204 193 180 173 258 337 205 239 218 222 238 239 61 47 317 311 4 337 307 256 221 211 216 218 222 229 236 242 245 249 254 259 266 271 273 275 279 264 253 259 261 267 279 304 338 358 2 360 357 351 346 347 338 333 335 337 340 340 344 351 358 2 5 9 10 11 9 11 12 6 5 6 4 7 11 11 9 11 19 32 39 36 32 22 18 26 30 16
269 189 125 119 85 299 322 341 230 214 221 201 17 300 241 239 263 42 240 243 240 230 98 338 328 358 331 293 251 243 234 228 229 234 236 241 247 251 256 257 259 263 267 273 280 284 259 249 258 257 251 245 289 348 5 1 358 354 349 348 347 340 338 337 335 338 339 343 347 352 359 5 7 7 10 11 12 13 11 10 7 6 6 12 16 14 16 22 29 38 40 30 18 14 19 15 11
264 219 134 118 212 274 291 268 219 208 250 316 291 262 247 257 318 303 257 250 240 250 279 281 264 261 263 252 245 246 247 242 249 262 251 252 257 258 259 257 256 259 265 274 283 280 247 251 257 246 229 219 263 354 6 356 355 350 348 348 344 342 347 342 339 341 341 344 344 347 355 4 7 7 9 11 13 13 15 14 9 9 7 11 18 17 21 22 23 34 40 34 29 26 27 27 22
32 109 129 136 191 267 256 234 133 142 249 103 253 268 267 260 336 265 254 255 218 260 266 255 240 238 238 234 235 234 237 240 237 252 256 258 260 258 255 251 248 250 256 264 263 244 244 255 251 226 212 211 235 3 356 349 351 347 345 345 344 347 351 346 346 345 343 346 344 345 353 3 8 9 9 10 13 14 15 17 13 11 9 11 17 17 19 19 20 33 40 45 46 45 45 51 51
91 110 116 112 188 269 269 226 50 343 208 137 263 277 282 120 279 256 234 126 22 256 222 210 223 235 237 233 234 231 233 239 235 247 260 256 253 252 248 243 240 238 239 234 215 218 240 256 235 212 203 199 196 235 342 344 342 341 341 342 345 349 351 349 349 348 348 349 347 349 356 2 8 11 12 11 14 15 15 18 17 14 12 12 16 19 21 17 17 31 39 47 49 47 51 59 60
100 116 124 101 258 234 252 212 29 339 185 156 262 278 267 150 225 249 188 121 253 266 234 217 228 238 240 236 235 230 231 235 230 239 251 249 243 241 238 233 230 228 223 214 207 211 222 234 211 200 197 191 183 190 325 332 331 336 339 341 345 350 352 350 349 351 353 354 353 358 359 0 6 11 14 13 15 17 17 19 19 17 16 15 16 21 25 19 16 28 36 42 44 45 49 53 56
93 95 189 171 226 199 63 46 28 334 76 148 254 275 245 183 221 241 163 135 255 264 257 242 230 238 236 231 231 225 225 225 221 232 244 248 247 246 244 238 230 228 221 209 204 201 199 203 197 191 189 186 180 191 267 314 326 335 339 341 344 350 352 352 354 355 356 0 2 2 1 359 3 10 14 17 18 18 19 19 21 20 17 18 18 19 23 18 17 23 28 37 41 43 47 48 50
114 249 269 231 223 198 39 35 335 305 114 133 251 280 242 189 221 226 103 320 259 246 247 236 226 236 229 224 229 229 220 217 223 234 242 251 255 255 254 249 240 231 221 206 197 191 191 185 173 176 179 179 188 205 249 310 329 339 345 345 345 352 354 358 360 359 4 9 7 4 3 1 2 7 12 19 23 22 21 18 19 20 19 22 21 17 18 17 18 21 24 29 35 38 43 47 52
134 244 233 256 249 178 72 37 321 273 141 63 246 262 272 211 209 181 100 321 252 243 227 211 227 228 226 223 237 239 223 221 230 240 245 252 256 255 254 252 243 228 212 200 191 186 185 176 168 171 177 189 200 215 253 322 349 356 357 352 353 359 3 11 9 6 10 8 6 5 5 5 5 6 11 19 25 26 24 19 18 19 22 25 24 20 18 17 19 21 24 23 23 28 31 39 48
18 258 204 173 254 206 96 72 350 325 146 264 235 255 278 285 177 133 124 134 262 261 232 216 235 232 235 222 230 245 236 224 234 244 246 248 250 250 249 243 229 210 195 190 187 182 179 174 172 172 180 197 204 208 231 35 27 19 21 20 19 25 27 29 21 13 16 15 16 15 10 10 9 8 12 18 24 27 27 24 20 20 25 28 29 30 28 22 21 20 21 22 19 16 19 26 33
196 264 243 170 222 248 142 132 44 358 316 231 225 263 289 295 62 123 169 216 288 284 261 249 243 236 240 225 221 245 246 234 232 232 229 226 230 231 226 212 197 187 181 182 180 176 175 172 172 172 183 195 197 183 114 79 63 51 58 59 55 54 51 48 40 36 40 40 37 28 16 10 9 11 14 19 24 26 30 30 27 24 27 32 32 34 35 31 29 22 16 21 21 14 11 15 17
195 224 258 227 223 252 251 159 100 344 258 225 216 244 265 263 250 193 199 214 260 275 267 261 255 241 231 231 239 236 236 244 227 192 177 190 198 193 183 177 178 178 176 176 173 171 170 169 174 175 183 186 179 159 125 109 91 79 89 88 76 70 67 65 62 57 53 46 35 22 14 9 8 11 12 19 25 26 30 34 34 33 32 34 33 34 36 37 38 34 23 22 24 24 16 7 8
193 194 233 242 219 239 269 224 53 349 246 240 235 239 260 264 259 246 220 206 247 262 260 258 256 247 232 226 230 225 223 235 224 171 166 183 181 169 161 162 171 173 171 167 165 166 166 169 173 173 177 173 172 170 151 152 135 114 114 105 86 79 82 81 71 60 48 34 23 14 9 10 11 15 13 16 23 26 30 32 35 39 40 39 34 34 36 37 41 42 38 36 29 28 25 13 6
289 198 237 254 240 241 263 87 45 359 274 250 245 249 267 271 268 262 234 194 235 253 250 248 245 243 235 224 221 216 219 222 205 164 175 174 166 155 149 155 160 161 160 159 160 162 165 169 169 167 170 172 178 180 185 185 165 147 130 118 98 89 94 87 69 59 49 35 26 18 16 18 20 21 21 17 20 26 28 30 33 38 44 44 38 37 36 35 39 43 42 43 42 32 28 24 15
359 131 199 241 259 264 128 91 72 24 282 255 241 264 274 271 269 268 238 187 232 244 238 239 232 229 225 217 216 208 212 212 168 174 179 170 159 146 144 149 150 150 154 156 159 163 166 167 165 167 172 177 185 197 214 204 174 160 139 122 109 101 101 89 69 60 53 42 33 31 29 28 31 31 29 26 26 28 28 29 31 35 41 43 41 40 40 38 39 42 40 38 45 43 32 28 24
16 174 237 227 240 263 106 83 88 93 298 268 247 289 276 267 267 267 241 210 238 240 231 234 227 222 218 211 212 203 199 197 179 184 173 166 156 146 146 148 148 151 155 160 164 166 166 165 166 172 179 182 196 215 224 209 175 159 141 126 118 110 110 99 78 68 60 52 43 41 43 41 41 43 41 35 34 36 37 33 29 33 38 40 40 40 41 42 40 42 39 30 37 46 40 34 36
278 174 250 245 236 274 210 102 117 140 295 295 343 310 282 275 272 270 257 236 242 241 233 241 226 220 215 205 203 190 184 182 175 170 159 159 156 150 151 151 154 157 159 164 168 168 168 169 174 177 183 189 203 218 212 192 154 128 128 132 130 122 116 100 80 76 71 63 57 53 53 53 51 50 49 47 45 44 46 45 34 33 35 35 35 32 34 37 38 41 40 32 26 37 43 38 44
248 201 246 258 41 294 247 100 87 213 261 295 308 296 277 278 274 264 259 244 256 256 243 253 243 236 224 202 200 186 183 177 170 164 157 157 158 158 158 156 160 161 163 169 171 174 176 177 181 182 186 193 201 211 198 173 136 107 124 136 136 127 114 99 82 81 82 74 67 62 58 55 55 55 55 55 56 53 49 52 46 38 36 33 33 30 25 28 31 34 37 37 31 28 35 35 44
213 226 250 262 122 231 264 341 321 251 179 282 297 282 262 273 282 257 141 191 263 244 236 241 230 234 241 244 224 198 189 176 167 164 158 159 159 161 164 163 165 165 170 176 177 181 182 181 185 184 186 193 196 198 187 170 136 121 135 135 131 119 107 96 82 78 81 79 71 66 62 60 60 61 61 62 63 62 58 56 54 51 46 42 43 39 29 25 26 27 31 35 33 28 23 26 38
216 214 234 327 93 203 281 320 316 273 189 146 318 298 274 124 268 255 146 228 243 185 218 227 204 200 213 214 201 190 197 190 167 156 152 155 155 155 160 162 163 165 172 177 179 181 179 180 182 182 184 188 190 189 185 182 158 156 155 147 137 123 104 87 84 83 82 81 78 73 70 69 69 68 68 68 68 67 66 65 63 62 59 56 55 53 45 36 27 26 28 30 32 31 23 19 29
249 171 137 124 126 158 301 318 302 283 286 87 342 293 285 287 259 233 31 283 252 216 221 213 187 186 198 201 188 176 183 187 174 155 152 155 157 157 158 159 159 164 172 175 176 176 174 177 178 179 182 181 183 184 184 186 164 158 155 145 132 120 108 95 96 96 91 88 87 83 78 76 75 74 72 71 70 71 70 70 70 69 67 65 64 61 58 52 42 35 35 33 31 32 31 25 22
278 107 141 147 157 173 32 301 260 291 319 277 98 314 279 281 279 101 7 289 256 235 220 203 189 191 193 192 185 179 180 178 172 169 169 165 165 162 154 154 159 164 169 171 171 171 171 173 174 174 174 172 174 175 168 163 153 144 138 130 122 116 113 108 104 101 98 96 92 88 83 79 76 75 74 72 70 70 71 70 71 71 70 69 68 64 61 61 58 54 52 49 43 38 38 35 23
46 121 148 117 99 88 124 258 244 284 304 237 121 14 266 262 271 97 20 278 254 237 215 201 191 186 190 188 182 183 176 171 171 168 168 165 162 158 149 151 157 161 164 167 167 167 168 168 168 166 162 158 154 152 151 148 145 139 132 126 120 116 114 111 108 105 102 99 95 90 86 81 78 76 75 74 71 70 70 70 70 70 70 70 69 67 64 63 61 60 60 58 56 49 44 43 36
115 137 114 94 99 79 117 269 240 195 266 235 118 357 274 267 274 193 105 268 254 237 207 196 189 181 187 184 177 176 167 162 169 158 151 149 145 144 144 145 150 155 158 160 161 161 161 159 159 155 149 144 141 142 144 142 141 137 132 127 122 119 117 114 113 110 104 100 95 90 86 82 79 77 76 75 74 73 72 71 71 70 70 70 69 69 68 66 64 63 62 61 63 61 52 48 46
140 161 151 125 139 92 174 262 268 229 245 171 91 330 283 284 283 231 204 248 255 234 200 191 190 190 190 184 176 173 167 162 161 147 132 129 130 137 139 137 142 148 151 154 155 155 154 152 151 146 139 138 139 139 140 139 138 135 131 129 126 124 123 120 116 111 106 101 95 90 86 84 82 80 78 78 77 76 75 74 74 73 72 71 70 70 70 68 67 67 67 65 64 63 57 52 51
210 205 240 257 192 172 201 184 199 243 238 95 83 316 263 253 256 234 200 218 235 237 219 199 191 190 185 179 176 171 167 161 155 148 141 139 139 143 141 134 137 143 147 150 151 150 149 147 146 141 135 137 138 138 138 136 134 132 130 130 129 128 127 123 117 111 108 103 98 93 89 84 82 81 79 79 79 79 78 78 77 76 74 73 72 72 72 70 67 66 68 66 64 63 60 55 51
248 235 230 268 266 224 241 204 202 250 295 83 101 292 256 248 254 260 255 241 233 237 251 229 195 183 177 173 173 167 163 162 158 154 153 153 154 154 150 143 141 144 147 149 149 148 146 143 142 139 136 137 138 137 137 134 132 131 131 130 128 127 124 120 117 112 109 106 103 98 92 87 83 81 80 80 80 81 80 79 79 78 77 77 76 76 76 74 70 66 66 65 61 59 58 56 53
202 224 244 269 287 293 262 251 271 275 55 91 111 271 262 265 266 258 258 274 294 253 272 285 238 184 171 166 164 163 164 167 163 157 157 160 160 157 152 149 147 145 147 148 148 148 145 142 142 139 137 138 139 137 136 134 132 131 131 130 128 126 123 120 117 115 112 109 106 102 98 94 90 87 86 86 85 85 84 82 82 81 81 81 81 80 79 78 75 71 68 66 61 57 55 56 55
170 359 336 267 263 280 272 274 282 296 344 115 161 246 242 259 316 219 263 321 333 274 262 290 291 206 126 138 150 162 170 169 161 155 158 158 155 152 148 147 146 143 146 149 149 149 146 143 143 141 139 140 140 139 137 134 133 133 132 131 130 128 125 122 119 117 114 111 110 107 104 101 99 96 95 94 92 90 87 86 84 83 83 82 82 81 79 78 77 74 71 68 64 60 58 55 52
139 78 284 249 279 295 278 356 347 338 313 243 203 247 242 262 284 258 282 280 251 240 204 206 222 159 129 159 171 174 172 165 163 160 156 153 149 148 146 144 144 144 148 151 152 152 150 147 145 143 142 143 143 142 139 137 136 136 135 134 132 130 126 124 121 119 117 116 114 112 110 108 105 103 100 98 95 93 90 87 84 83 81 81 80 80 78 76 73 72 71 68 64 62 60 57 51
144 190 213 185 348 349 131 107 81 144 267 249 198 260 270 292 286 285 67 256 213 173 174 188 187 166 169 185 182 182 175 164 169 167 160 157 153 151 149 146 147 150 153 155 156 156 154 151 150 147 145 145 145 144 142 140 139 138 137 136 133 130 127 125 124 122 121 120 118 116 114 112 109 107 103 100 97 95 92 88 85 82 79 78 77 76 75 72 69 66 66 65 62 58 56 54 51
222 208 96 88 260 308 355 260 235 202 255 257 202 266 288 317 295 338 58 234 217 193 182 181 183 181 191 195 187 183 173 164 167 163 158 158 157 156 153 151 153 156 158 160 160 159 156 155 153 151 149 147 146 145 143 142 141 139 137 136 134 131 129 128 126 126 124 123 121 118 117 115 112 109 106 102 99 96 93 90 86 83 80 78 76 75 72 69 66 63 61 61 60 57 52 49 48
280 297 31 324 240 210 147 242 265 257 271 278 254 276 277 230 242 288 281 226 217 200 182 188 197 196 199 197 188 183 172 166 168 165 163 162 163 163 159 157 158 159 161 162 163 161 158 156 154 152 151 149 147 146 144 143 142 140 138 137 136 134 132 131 129 128 127 125 123 122 119 117 114 111 109 105 101 97 94 91 88 84 81 78 75 73 71 68 64 61 58 57 58 57 52 45 44
224 257 218 258 292 295 231 183 293 269 278 294 298 304 259 214 214 247 251 243 214 192 188 202 204 199 200 195 186 184 180 178 178 175 173 170 169 168 164 162 161 162 164 164 163 162 159 157 156 153 151 149 148 147 146 145 144 143 141 139 138 136 135 133 131 130 128 126 124 123 120 118 116 114 111 108 104 100 97 93 90 86 81 77 74 71 68 65 61 58 56 55 54 53 51 45 42
180 201 190 179 184 316 268 219 51 278 269 268 282 286 261 215 182 218 238 256 219 200 203 208 204 199 200 196 188 184 182 183 183 178 175 172 170 168 165 163 162 162 163 163 163 163 161 159 156 154 152 150 148 148 148 147 146 145 144 142 140 139 137 134 132 131 129 127 125 124 122 120 118 115 112 110 106 102 99 96 92 87 82 78 74 70 67 64 59 55 55 55 52 49 46 44 41
220 208 198 192 171 158 226 232 146 358 274 244 262 284 271 234 162 215 234 261 247 233 229 220 206 202 202 198 192 186 183 186 185 179 174 171 170 170 166 164 164 164 164 164 164 163 161 159 157 155 153 152 151 151 151 150 149 148 146 145 143 141 138 136 134 132 129 128 126 125 123 121 118 115 113 110 107 104 100 97 93 88 83 78 74 70 67 65 61 55 54 54 50 46 43 41 40